Starlink 3562

operational
NORAD ID: 51861 Int'l Des: 2022-022 Owner: SPXS Country: US Constellation: starlink
LEOCIRCULAR

Über Starlink 3562

Beschreibung wird geladen...

Live-Position

3D-Globus wird geladen...

Nächste Überflüge

Höhenverlauf

Altitude vs Time

uPlot chart will show altitude changes over time

Zweizeiliger Elementsatz

1 51861U 22022K 25354.75560385 -.00000032 00000-0 16077-4 0 9998
2 51861 53.2194 3.4710 0001333 84.7845 275.3300 15.08837827211113
Epoch: 20. Dez. 2025 • Age: 9 hours

Aktueller Status

Höhe 557.7 km
Geschwindigkeit 7.58 km/s
Subsatellitenpunkt -49.52°S, 104.53°E
Startdatum 3. März 2022
Alter 3.8 years
Typ internet

Technische Details

Klassifizierung Payload
Masse 297.00 kg
Trockenmasse 275.00 kg
Gesamtmasse 297.00 kg
Länge 0.20 m
Durchmesser 2.80 m
Spannweite 9.00 m
Form Box + pan
Hersteller SPXS
Bus-Typ Starlink
Phasenstatus In Orbit
Besitzer/Staat SPXS/US

Große Konstellationen

Loading constellations...